Terug naar catalogus

RADUGA 1-2

ActiefCommunicatieGEO
NORAD 21038·PAYLOAD·🇷🇺 Russia

Gelanceerd Dec 27, 1990 vanaf Baikonur Cosmodrome

Loading…

TLE

VersSource: Space-Track

Epoch: Sep 13, 2026, 19:16 UTC

1 21038U 90116A   26256.80317485  .00000015  00000-0  00000-0 0  9994
2 21038  12.7995 337.3102 0004178 146.2181 219.8545  1.00223591 48235

Volg RADUGA 1-2 in realtime met AllMySat

Download on the App Store